星链-5832 (STARLINK-5832 )

导读 | 星芒AI

STARLINK-5832 是 SpaceX Starlink 项目中的一颗低轨通信卫星,属于第 17 批组网发射的“星链”卫星之一。该卫星运行在约 550 公里的近地轨道,旨在为全球用户提供高速互联网服务。作为 Starlink 卫星群的一部分,STARLINK-5832 采用先进推进系统和激光通信技术,支持卫星间高速数据传输,提高网络稳定性和覆盖范围。该卫星的部署有助于 SpaceX 扩展其全球宽带网络,特别是在偏远和网络基础设施薄弱的地区。

基本信息
目录编号:
57063
目录名称:
STARLINK-5832
国际标识:
2023-088R
轨道中心:
EARTH
卫星名称:
星链-5832
卫星全名:
星链-5832 (STARLINK-5832 )
卫星状态:
在轨 (已飞行866 天)
发射日期:
2023-06-22 UTC
国别 :
美国 (US)
星等 :
--
轨道信息
数据来源 国际轨道数据
星历时间: 2025-11-04T09:07:38+0800
10小时前
查看轨道信息
半长轴: 6937.233km
偏心率: 0.0001107
轨道倾角: 43.003°
近地点辐角 268.040°
升交点赤经 69.843°
平近点角 92.032°
近地点: 558.33km
远地点: 559.866km
周期: 95.838分钟
每日圈数: 15.025309
详细信息
固有亮度:
5
最大亮度:
2.4
卫星平台:
Starlink v1.5
覆盖范围:
全球
运营商:
太空探索技术公司
运营商所在国:
美国
制造商(研发单位):
太空探索技术公司
制造商所在国:
美国
使用方式:
暂无
卫星简介
星链(Starlink)计划是由太空探索技术公司(SpaceX)提出的一个巨型低轨卫星互联网星座项目,计划在2019年至2024年间在太空搭建由约1.2万颗卫星组成的“星链”网络,其中1584颗将部署在地球上空550千米处的近地轨道,并从2020年开始工作。该卫星仍在工作。
2D轨道图
3D轨道图
轨道高度分析图
轨道倾角分析图
轨道综合分析图
查看轨道综合分析图